Location: Newark
(35.2672°N, 80.7344°W)
Time: 20:26:36
(UTC+00:00)

Vanguard 1 - Pass Details

Date: 29 January 2020
Orbit: 650 x 3833 km, 34.2° (Epoch: 25 February)

Event Time Altitude Azimuth Distance (km) Brightness Sun altitude
Rises 23:15:56 0° 273° (W) 3,016 14.2 -6.3°
Reaches altitude 10° 23:18:13 10° 271° (W) 2,047 13.2 -6.7°
Maximum altitude 23:22:36 77° 186° (S) 700 9.4 -7.6°
Drops below altitude 10° 23:27:53 10° 101° (E) 2,463 11.6 -8.6°
Enters shadow 23:28:38 - 100° (E) 2,774 11.8 -8.7°
